Tracking 20712 objects as of 29-May-2020
HD Live streaming from Space Station
objects crossing your sky now

IRIDIUM 33 DEB

Track IRIDIUM 33 DEB now!
10-day predictions


NORAD ID: 38233
Int'l Code: 1997-051ZH
Perigee: 724.5 km
Apogee: 951.6 km
Inclination: 86.2 °
Period: 101.5 minutes
Semi major axis: 7209 km
RCS: 0.0081 m2 (small)
Launch date: September 14, 1997
Source: United States (US)
Launch site: TYURATAM MISSILE AND SPACE COMPLEX (TTMTR)

Note: This is SATELLITE DEBRIS
aabbcc
Your satellite tracking list
Your tracking list is empty




NASA's NSSDC Master Catalog

Two Line Element Set (TLE):
1 38233U 97051ZH  20143.95012913 +.00001908 +00000-0 +81167-3 0  9995
2 38233 086.2187 202.1924 0157541 236.3123 244.6381 14.18352467366976
Source of the keplerian elements: AFSPC